Year,Month,Day,Hour,Minute,Value (Times are PST for temperature in C)
2016,04,01,00,00,9.60
2016,04,01,00,01,9.60
2016,04,01,00,02,9.60
2016,04,01,00,03,9.50
2016,04,01,00,04,9.50
2016,04,01,00,05,9.50
2016,04,01,00,06,9.50
2016,04,01,00,07,9.50
2016,04,01,00,08,9.40
2016,04,01,00,09,9.40
2016,04,01,00,10,9.40
2016,04,01,00,12,9.40
2016,04,01,00,13,9.30
2016,04,01,00,14,9.30
2016,04,01,00,16,9.30
2016,04,01,00,17,9.30
2016,04,01,00,18,9.20
2016,04,01,00,19,9.20
2016,04,01,00,21,9.20
2016,04,01,00,22,9.20
2016,04,01,00,23,9.20
2016,04,01,00,24,9.20
2016,04,01,00,26,9.20
2016,04,01,00,27,9.20
2016,04,01,00,28,9.20
2016,04,01,00,29,9.10
2016,04,01,00,31,9.10
2016,04,01,00,32,9.10
2016,04,01,00,33,9.10
2016,04,01,00,34,9.10
2016,04,01,00,36,9.00
2016,04,01,00,37,9.00
2016,04,01,00,38,9.00
2016,04,01,00,39,9.00
2016,04,01,00,41,8.90
2016,04,01,00,42,8.90
2016,04,01,00,43,8.90
2016,04,01,00,44,8.90
2016,04,01,00,46,8.90
2016,04,01,00,47,8.90
2016,04,01,00,48,8.90
2016,04,01,00,49,8.90
2016,04,01,00,51,8.80
2016,04,01,00,52,8.80
2016,04,01,00,53,8.80
2016,04,01,00,54,8.80
2016,04,01,00,56,8.80
2016,04,01,00,57,8.70
2016,04,01,00,58,8.70
2016,04,01,00,59,8.70
2016,04,01,01,01,8.70
2016,04,01,01,02,8.70
2016,04,01,01,03,8.70
2016,04,01,01,04,8.70
2016,04,01,01,06,8.70
2016,04,01,01,07,8.70
2016,04,01,01,08,8.70
2016,04,01,01,09,8.70
2016,04,01,01,11,8.70
2016,04,01,01,12,8.70
2016,04,01,01,13,8.70
2016,04,01,01,14,8.70
2016,04,01,01,15,8.70
2016,04,01,01,16,8.70
2016,04,01,01,17,8.60
2016,04,01,01,18,8.60
2016,04,01,01,19,8.60
2016,04,01,01,20,8.60
2016,04,01,01,21,8.60
2016,04,01,01,22,8.60
2016,04,01,01,23,8.60
2016,04,01,01,24,8.50
2016,04,01,01,25,8.50
2016,04,01,01,26,8.50
2016,04,01,01,27,8.50
2016,04,01,01,28,8.50
2016,04,01,01,29,8.50
2016,04,01,01,30,8.50
2016,04,01,01,31,8.50
2016,04,01,01,32,8.50
2016,04,01,01,33,8.50
2016,04,01,01,34,8.50
2016,04,01,01,35,8.50
2016,04,01,01,36,8.50
2016,04,01,01,37,8.50
2016,04,01,01,38,8.50
2016,04,01,01,39,8.50
2016,04,01,01,40,8.50
2016,04,01,01,41,8.50
2016,04,01,01,42,8.50
2016,04,01,01,43,8.50
2016,04,01,01,44,8.50
2016,04,01,01,45,8.50
2016,04,01,01,46,8.50
2016,04,01,01,47,8.50
2016,04,01,01,48,8.50
2016,04,01,01,49,8.50
2016,04,01,01,50,8.60
2016,04,01,01,51,8.60
2016,04,01,01,52,8.60
2016,04,01,01,53,8.60
2016,04,01,01,54,8.70
2016,04,01,01,55,8.70
2016,04,01,01,56,8.70
2016,04,01,01,57,8.70
2016,04,01,01,58,8.70
2016,04,01,01,59,8.70
2016,04,01,02,00,8.70
2016,04,01,02,01,8.70
2016,04,01,02,02,8.70
2016,04,01,02,03,8.70
2016,04,01,02,04,8.70
2016,04,01,02,05,8.80
2016,04,01,02,06,8.80
2016,04,01,02,07,8.80
2016,04,01,02,08,8.80
2016,04,01,02,09,8.80
2016,04,01,02,10,8.80
2016,04,01,02,11,8.80
2016,04,01,02,12,8.80
2016,04,01,02,13,8.90
2016,04,01,02,14,8.90
2016,04,01,02,15,8.90
2016,04,01,02,16,8.90
2016,04,01,02,17,8.90
2016,04,01,02,18,8.90
2016,04,01,02,19,8.90
2016,04,01,02,20,8.90
2016,04,01,02,21,8.90
2016,04,01,02,22,8.90
2016,04,01,02,23,8.90
2016,04,01,02,24,8.90
2016,04,01,02,25,8.80
2016,04,01,02,26,8.80
2016,04,01,02,27,8.80
2016,04,01,02,28,8.70
2016,04,01,02,29,8.70
2016,04,01,02,30,8.70
2016,04,01,02,31,8.70
2016,04,01,02,32,8.70
2016,04,01,02,33,8.70
2016,04,01,02,34,8.70
2016,04,01,02,35,8.70
2016,04,01,02,36,8.70
2016,04,01,02,37,8.70
2016,04,01,02,38,8.70
2016,04,01,02,39,8.70
2016,04,01,02,40,8.70
2016,04,01,02,41,8.70
2016,04,01,02,42,8.70
2016,04,01,02,43,8.70
2016,04,01,02,44,8.70
2016,04,01,02,45,8.70
2016,04,01,02,46,8.70
2016,04,01,02,47,8.70
2016,04,01,02,48,8.70
2016,04,01,02,49,8.70
2016,04,01,02,50,8.70
2016,04,01,02,51,8.70
2016,04,01,02,53,8.70
2016,04,01,02,54,8.70
2016,04,01,02,56,8.70
2016,04,01,02,57,8.70
2016,04,01,02,59,8.70
2016,04,01,03,01,8.70
2016,04,01,03,02,8.70
2016,04,01,03,03,8.70
2016,04,01,03,04,8.70
2016,04,01,03,06,8.70
2016,04,01,03,07,8.70
2016,04,01,03,08,8.70
2016,04,01,03,09,8.70
2016,04,01,03,11,8.70
2016,04,01,03,12,8.60
2016,04,01,03,13,8.60
2016,04,01,03,14,8.60
2016,04,01,03,16,8.60
2016,04,01,03,17,8.50
2016,04,01,03,18,8.50
2016,04,01,03,19,8.50
2016,04,01,03,21,8.40
2016,04,01,03,22,8.40
2016,04,01,03,23,8.40
2016,04,01,03,24,8.30
2016,04,01,03,26,8.30
2016,04,01,03,27,8.30
2016,04,01,03,28,8.20
2016,04,01,03,29,8.20
2016,04,01,03,31,8.20
2016,04,01,03,32,8.20
2016,04,01,03,33,8.20
2016,04,01,03,34,8.20
2016,04,01,03,36,8.20
2016,04,01,03,37,8.20
2016,04,01,03,38,8.20
2016,04,01,03,39,8.20
2016,04,01,03,41,8.10
2016,04,01,03,42,8.10
2016,04,01,03,43,8.10
2016,04,01,03,44,8.10
2016,04,01,03,46,8.10
2016,04,01,03,47,8.10
2016,04,01,03,48,8.10
2016,04,01,03,49,8.10
2016,04,01,03,51,8.10
2016,04,01,03,52,8.00
2016,04,01,03,53,8.00
2016,04,01,03,54,8.00
2016,04,01,03,56,8.00
2016,04,01,03,57,8.00
2016,04,01,03,58,7.90
2016,04,01,03,59,7.90
2016,04,01,04,01,7.90
2016,04,01,04,02,7.90
2016,04,01,04,03,7.90
2016,04,01,04,04,7.90
2016,04,01,04,06,7.80
2016,04,01,04,07,7.80
2016,04,01,04,08,7.80
2016,04,01,04,09,7.80
2016,04,01,04,10,7.80
2016,04,01,04,11,7.80
2016,04,01,04,12,7.80
2016,04,01,04,13,7.80
2016,04,01,04,14,7.80
2016,04,01,04,15,7.80
2016,04,01,04,16,7.80
2016,04,01,04,17,7.80
2016,04,01,04,18,7.80
2016,04,01,04,19,7.90
2016,04,01,04,20,7.90
2016,04,01,04,21,7.90
2016,04,01,04,22,7.90
2016,04,01,04,23,8.00
2016,04,01,04,24,8.00
2016,04,01,04,25,8.00
2016,04,01,04,26,8.10
2016,04,01,04,27,8.10
2016,04,01,04,28,8.10
2016,04,01,04,29,8.20
2016,04,01,04,30,8.20
2016,04,01,04,31,8.20
2016,04,01,04,32,8.20
2016,04,01,04,33,8.20
2016,04,01,04,34,8.20
2016,04,01,04,35,8.20
2016,04,01,04,36,8.20
2016,04,01,04,37,8.20
2016,04,01,04,38,8.30
2016,04,01,04,39,8.30
2016,04,01,04,40,8.30
2016,04,01,04,41,8.30
2016,04,01,04,42,8.30
2016,04,01,04,43,8.30
2016,04,01,04,44,8.30
2016,04,01,04,45,8.40
2016,04,01,04,46,8.40
2016,04,01,04,47,8.40
2016,04,01,04,48,8.40
2016,04,01,04,49,8.40
2016,04,01,04,50,8.40
2016,04,01,04,51,8.40
2016,04,01,04,52,8.40
2016,04,01,04,53,8.40
2016,04,01,04,54,8.40
2016,04,01,04,55,8.40
2016,04,01,04,56,8.40
2016,04,01,04,57,8.40
2016,04,01,04,58,8.40
2016,04,01,04,59,8.40
2016,04,01,05,00,8.40
2016,04,01,05,01,8.40
2016,04,01,05,02,8.40
2016,04,01,05,03,8.50
2016,04,01,05,04,8.50
2016,04,01,05,05,8.50
2016,04,01,05,06,8.50
2016,04,01,05,07,8.50
2016,04,01,05,08,8.50
2016,04,01,05,09,8.50
2016,04,01,05,10,8.50
2016,04,01,05,11,8.50
2016,04,01,05,12,8.50
2016,04,01,05,13,8.60
2016,04,01,05,14,8.60
2016,04,01,05,15,8.60
2016,04,01,05,16,8.60
2016,04,01,05,17,8.70
2016,04,01,05,18,8.70
2016,04,01,05,19,8.70
2016,04,01,05,20,8.70
2016,04,01,05,21,8.70
2016,04,01,05,22,8.70
2016,04,01,05,23,8.70
2016,04,01,05,28,8.70
2016,04,01,05,29,8.70
2016,04,01,05,30,8.70
2016,04,01,05,31,8.70
2016,04,01,05,32,8.70
2016,04,01,05,33,8.70
2016,04,01,05,34,8.70
2016,04,01,05,35,8.70
2016,04,01,05,36,8.70
2016,04,01,05,37,8.70
2016,04,01,05,38,8.70
2016,04,01,05,39,8.70
2016,04,01,05,40,8.70
2016,04,01,05,41,8.60
2016,04,01,05,42,8.60
2016,04,01,05,43,8.60
2016,04,01,05,44,8.60
2016,04,01,05,45,8.50
2016,04,01,05,46,8.50
2016,04,01,05,47,8.50
2016,04,01,06,28,7.90
2016,04,01,06,29,7.90
2016,04,01,06,30,7.90
2016,04,01,06,31,7.80
2016,04,01,06,32,7.80
2016,04,01,06,33,7.90
2016,04,01,06,34,7.90
2016,04,01,06,35,7.90
2016,04,01,06,36,7.90
2016,04,01,06,37,7.90
2016,04,01,08,28,11.30
2016,04,01,08,29,11.30
2016,04,01,08,30,11.40
2016,04,01,08,31,11.40
2016,04,01,08,32,11.40
2016,04,01,08,33,11.40
2016,04,01,08,34,11.40
2016,04,01,08,35,11.40
2016,04,01,08,36,11.40
2016,04,01,08,37,11.40
2016,04,01,08,38,11.40
2016,04,01,08,39,11.40
2016,04,01,08,40,11.40
2016,04,01,08,41,11.30
2016,04,01,08,42,11.30
2016,04,01,08,43,11.30
2016,04,01,08,44,11.20
2016,04,01,08,45,11.20
2016,04,01,08,46,11.20
2016,04,01,08,47,11.20
2016,04,01,08,48,11.10
2016,04,01,08,49,11.10
2016,04,01,08,50,11.10
2016,04,01,08,51,11.10
2016,04,01,08,52,11.10
2016,04,01,08,53,11.10
2016,04,01,08,54,11.10
2016,04,01,08,56,11.30
2016,04,01,08,57,11.40
2016,04,01,08,58,11.60
2016,04,01,08,59,11.70
2016,04,01,09,01,11.80
2016,04,01,09,02,11.80
2016,04,01,09,03,11.80
2016,04,01,09,04,11.90
2016,04,01,09,06,12.10
2016,04,01,09,07,12.20
2016,04,01,09,08,12.30
2016,04,01,09,09,12.20
2016,04,01,09,11,12.20
2016,04,01,09,12,12.30
2016,04,01,09,13,12.30
2016,04,01,09,14,12.30
2016,04,01,09,16,12.30
2016,04,01,09,17,12.40
2016,04,01,09,18,12.40
2016,04,01,09,19,12.40
2016,04,01,09,21,12.30
2016,04,01,09,22,12.30
2016,04,01,09,23,12.30
2016,04,01,09,24,12.30
2016,04,01,09,26,12.30
2016,04,01,09,27,12.30
2016,04,01,09,28,12.30
2016,04,01,09,29,12.30
2016,04,01,09,31,12.20
2016,04,01,09,32,12.20
2016,04,01,09,33,12.20
2016,04,01,09,34,12.20
2016,04,01,09,36,12.20
2016,04,01,09,37,12.20
2016,04,01,09,38,12.30
2016,04,01,09,39,12.30
2016,04,01,09,41,12.30
2016,04,01,09,42,12.30
2016,04,01,09,43,12.30
2016,04,01,09,44,12.30
2016,04,01,09,46,12.30
2016,04,01,09,47,12.40
2016,04,01,09,48,12.50
2016,04,01,09,49,12.70
2016,04,01,09,51,12.80
2016,04,01,09,52,12.90
2016,04,01,09,53,13.00
2016,04,01,09,54,13.10
2016,04,01,09,56,13.10
2016,04,01,09,57,13.10
2016,04,01,09,58,13.10
2016,04,01,09,59,13.10
2016,04,01,10,02,13.10
2016,04,01,10,03,13.10
2016,04,01,10,04,13.20
2016,04,01,10,06,13.20
2016,04,01,10,07,13.10
2016,04,01,10,08,13.10
2016,04,01,10,09,13.10
2016,04,01,10,11,13.10
2016,04,01,10,12,13.20
2016,04,01,10,13,13.20
2016,04,01,10,14,13.20
2016,04,01,10,16,13.20
2016,04,01,10,17,13.20
2016,04,01,10,18,13.20
2016,04,01,10,19,13.30
2016,04,01,10,21,13.40
2016,04,01,10,22,13.40
2016,04,01,10,23,13.50
2016,04,01,10,24,13.60
2016,04,01,10,25,13.60
2016,04,01,10,26,13.60
2016,04,01,10,27,13.60
2016,04,01,10,28,13.50
2016,04,01,10,29,13.40
2016,04,01,10,30,13.30
2016,04,01,10,31,13.30
2016,04,01,10,32,13.20
2016,04,01,10,33,13.20
2016,04,01,10,34,13.10
2016,04,01,10,35,13.10
2016,04,01,10,36,13.10
2016,04,01,10,37,13.10
2016,04,01,10,38,13.10
2016,04,01,10,39,13.10
2016,04,01,10,40,13.00
2016,04,01,10,41,13.00
2016,04,01,10,42,13.00
2016,04,01,10,43,13.00
2016,04,01,10,44,13.00
2016,04,01,10,45,13.00
2016,04,01,10,46,13.00
2016,04,01,10,47,13.00
2016,04,01,10,48,13.00
2016,04,01,10,49,13.00
2016,04,01,10,50,13.00
2016,04,01,10,51,13.00
2016,04,01,10,52,13.00
2016,04,01,10,53,13.00
2016,04,01,10,54,13.00
2016,04,01,10,55,13.00
2016,04,01,10,56,13.10
2016,04,01,10,57,13.10
2016,04,01,10,58,13.10
2016,04,01,10,59,13.10
2016,04,01,11,00,13.10
2016,04,01,11,01,13.20
2016,04,01,11,02,13.20
2016,04,01,11,03,13.30
2016,04,01,11,04,13.30
2016,04,01,11,05,13.40
2016,04,01,11,06,13.50
2016,04,01,11,07,13.60
2016,04,01,11,08,13.70
2016,04,01,11,09,13.70
2016,04,01,11,29,14.90
2016,04,01,11,30,14.90
2016,04,01,11,31,14.90
2016,04,01,11,32,14.90
2016,04,01,11,33,14.90
2016,04,01,11,34,15.00
2016,04,01,11,35,15.00
2016,04,01,11,36,15.10
2016,04,01,11,37,15.10
2016,04,01,11,38,15.20
2016,04,01,11,39,15.30
2016,04,01,11,40,15.30
2016,04,01,11,41,15.30
2016,04,01,11,42,15.40
2016,04,01,11,43,15.50
2016,04,01,11,44,15.50
2016,04,01,11,45,15.50
2016,04,01,11,46,15.60
2016,04,01,11,47,15.60
2016,04,01,11,48,15.60
2016,04,01,11,49,15.60
2016,04,01,11,50,15.60
2016,04,01,11,51,15.50
2016,04,01,11,52,15.60
2016,04,01,11,53,15.60
2016,04,01,11,54,15.60
2016,04,01,11,55,15.70
2016,04,01,11,56,15.70
2016,04,01,11,57,15.80
2016,04,01,11,58,15.80
2016,04,01,11,59,15.80
2016,04,01,12,00,15.80
2016,04,01,12,01,15.90
2016,04,01,12,02,15.90
2016,04,01,12,03,15.90
2016,04,01,12,04,15.90
2016,04,01,12,06,15.80
2016,04,01,12,07,15.80
2016,04,01,12,08,15.80
2016,04,01,12,09,15.80
2016,04,01,12,11,15.70
2016,04,01,12,12,15.70
2016,04,01,12,13,15.60
2016,04,01,12,14,15.60
2016,04,01,12,16,15.60
2016,04,01,12,17,15.60
2016,04,01,12,18,15.60
2016,04,01,12,19,15.60
2016,04,01,12,21,15.60
2016,04,01,12,22,15.60
2016,04,01,12,23,15.70
2016,04,01,12,24,15.70
2016,04,01,12,26,15.80
2016,04,01,12,27,15.80
2016,04,01,12,28,15.80
2016,04,01,12,29,15.80
2016,04,01,12,31,15.90
2016,04,01,12,32,16.10
2016,04,01,12,33,16.10
2016,04,01,12,34,16.10
2016,04,01,12,36,16.20
2016,04,01,12,37,16.20
2016,04,01,12,38,16.20
2016,04,01,12,39,16.20
2016,04,01,12,41,16.20
2016,04,01,12,42,16.20
2016,04,01,12,43,16.20
2016,04,01,12,44,16.10
2016,04,01,12,46,16.10
2016,04,01,12,47,16.10
2016,04,01,12,48,15.90
2016,04,01,12,49,15.90
2016,04,01,12,51,15.90
2016,04,01,12,52,15.80
2016,04,01,12,53,15.80
2016,04,01,12,54,15.80
2016,04,01,12,56,15.70
2016,04,01,12,57,15.70
2016,04,01,12,58,15.70
2016,04,01,12,59,15.60
2016,04,01,13,01,15.60
2016,04,01,13,02,15.70
2016,04,01,13,03,15.70
2016,04,01,13,04,15.70
2016,04,01,13,06,15.70
2016,04,01,13,07,15.70
2016,04,01,13,08,15.70
2016,04,01,13,09,15.70
2016,04,01,13,11,15.60
2016,04,01,13,12,15.60
2016,04,01,13,13,15.60
2016,04,01,13,14,15.60
2016,04,01,13,16,15.70
2016,04,01,13,17,15.70
2016,04,01,13,18,15.70
2016,04,01,13,19,15.70
2016,04,01,13,21,15.50
2016,04,01,13,22,15.50
2016,04,01,13,23,15.50
2016,04,01,13,24,15.40
2016,04,01,13,25,15.40
2016,04,01,13,26,15.40
2016,04,01,13,27,15.40
2016,04,01,13,28,15.40
2016,04,01,13,29,15.40
2016,04,01,13,30,15.50
2016,04,01,13,31,15.50
2016,04,01,13,32,15.60
2016,04,01,13,33,15.60
2016,04,01,13,34,15.70
2016,04,01,13,35,15.80
2016,04,01,13,36,15.80
2016,04,01,13,37,15.80
2016,04,01,13,38,15.80
2016,04,01,13,39,15.80
2016,04,01,13,40,15.90
2016,04,01,13,41,15.90
2016,04,01,13,42,16.10
2016,04,01,13,43,16.10
2016,04,01,13,44,16.10
2016,04,01,13,45,16.10
2016,04,01,13,46,16.10
2016,04,01,13,47,16.10
2016,04,01,13,48,16.10
2016,04,01,13,49,16.10
2016,04,01,13,50,16.10
2016,04,01,13,51,16.10
2016,04,01,13,52,16.10
2016,04,01,13,53,16.10
2016,04,01,13,54,16.10
2016,04,01,13,55,15.90
2016,04,01,13,56,15.90
2016,04,01,13,57,15.90
2016,04,01,13,58,16.10
2016,04,01,13,59,15.90
2016,04,01,14,00,15.90
2016,04,01,14,01,15.80
2016,04,01,14,02,15.80
2016,04,01,14,03,15.80
2016,04,01,14,04,15.80
2016,04,01,14,05,15.80
2016,04,01,14,06,15.80
2016,04,01,14,07,15.80
2016,04,01,14,08,15.80
2016,04,01,14,09,15.80
2016,04,01,14,10,15.80
2016,04,01,14,11,15.80
2016,04,01,14,12,15.80
2016,04,01,14,13,15.70
2016,04,01,14,14,15.60
2016,04,01,14,15,15.50
2016,04,01,14,16,15.50
2016,04,01,14,17,15.40
2016,04,01,14,18,15.30
2016,04,01,14,19,15.30
2016,04,01,14,20,15.30
2016,04,01,14,21,15.30
2016,04,01,14,22,15.30
2016,04,01,14,23,15.20
2016,04,01,14,24,15.20
2016,04,01,14,25,15.20
2016,04,01,14,26,15.20
2016,04,01,14,27,15.20
2016,04,01,14,28,15.20
2016,04,01,14,29,15.20
2016,04,01,14,30,15.30
2016,04,01,14,31,15.30
2016,04,01,14,32,15.30
2016,04,01,14,33,15.30
2016,04,01,14,34,15.30
2016,04,01,14,35,15.30
2016,04,01,14,36,15.30
2016,04,01,14,37,15.20
2016,04,01,14,38,15.20
2016,04,01,14,39,15.20
2016,04,01,14,40,15.10
2016,04,01,14,41,15.00
2016,04,01,14,42,15.00
2016,04,01,14,43,14.90
2016,04,01,14,44,14.90
2016,04,01,14,45,14.90
2016,04,01,14,46,14.80
2016,04,01,14,48,14.80
2016,04,01,14,49,14.80
2016,04,01,14,51,14.80
2016,04,01,14,52,14.80
2016,04,01,14,53,14.80
2016,04,01,14,54,14.80
2016,04,01,14,56,14.70
2016,04,01,14,57,14.70
2016,04,01,14,58,14.70
2016,04,01,14,59,14.80
2016,04,01,15,01,14.80
2016,04,01,15,02,14.80
2016,04,01,15,03,14.80
2016,04,01,15,04,14.80
2016,04,01,15,06,14.80
2016,04,01,15,07,14.80
2016,04,01,15,08,14.80
2016,04,01,15,09,14.80
2016,04,01,15,11,14.90
2016,04,01,15,12,14.90
2016,04,01,15,13,14.90
2016,04,01,15,14,14.90
2016,04,01,15,16,14.90
2016,04,01,15,17,14.90
2016,04,01,15,18,14.90
2016,04,01,15,19,14.90
2016,04,01,15,21,14.90
2016,04,01,15,22,14.90
2016,04,01,15,23,14.90
2016,04,01,15,24,15.00
2016,04,01,15,26,15.00
2016,04,01,15,27,15.00
2016,04,01,15,28,15.00
2016,04,01,15,29,15.00
2016,04,01,15,31,15.00
2016,04,01,15,32,15.00
2016,04,01,15,33,14.90
2016,04,01,15,34,14.90
2016,04,01,15,36,14.80
2016,04,01,15,37,14.80
2016,04,01,15,38,14.80
2016,04,01,15,39,14.80
2016,04,01,15,41,14.80
2016,04,01,15,42,14.80
2016,04,01,15,43,14.70
2016,04,01,15,44,14.70
2016,04,01,15,46,14.70
2016,04,01,15,47,14.70
2016,04,01,15,48,14.70
2016,04,01,15,49,14.70
2016,04,01,15,51,14.60
2016,04,01,15,52,14.50
2016,04,01,15,53,14.50
2016,04,01,15,54,14.50
2016,04,01,15,56,14.40
2016,04,01,15,57,14.40
2016,04,01,15,58,14.40
2016,04,01,15,59,14.40
2016,04,01,16,01,14.40
2016,04,01,16,02,14.30
2016,04,01,16,03,14.30
2016,04,01,16,04,14.30
2016,04,01,16,06,14.40
2016,04,01,16,07,14.30
2016,04,01,16,08,14.40
2016,04,01,16,09,14.30
2016,04,01,16,10,14.30
2016,04,01,16,11,14.30
2016,04,01,16,12,14.40
2016,04,01,16,13,14.40
2016,04,01,16,14,14.40
2016,04,01,16,15,14.40
2016,04,01,16,16,14.40
2016,04,01,16,17,14.40
2016,04,01,16,18,14.40
2016,04,01,16,19,14.40
2016,04,01,16,20,14.40
2016,04,01,16,21,14.30
2016,04,01,16,22,14.30
2016,04,01,16,23,14.30
2016,04,01,16,24,14.30
2016,04,01,16,25,14.40
2016,04,01,16,26,14.40
2016,04,01,16,27,14.40
2016,04,01,16,28,14.40
2016,04,01,16,29,14.40
2016,04,01,16,30,14.40
2016,04,01,16,31,14.40
2016,04,01,16,32,14.40
2016,04,01,16,33,14.30
2016,04,01,16,34,14.30
2016,04,01,16,35,14.30
2016,04,01,16,36,14.30
2016,04,01,16,37,14.30
2016,04,01,16,38,14.30
2016,04,01,16,39,14.40
2016,04,01,16,40,14.40
2016,04,01,16,41,14.30
2016,04,01,16,42,14.30
2016,04,01,16,43,14.30
2016,04,01,16,44,14.30
2016,04,01,16,45,14.30
2016,04,01,16,46,14.30
2016,04,01,16,47,14.30
2016,04,01,16,48,14.20
2016,04,01,16,49,14.20
2016,04,01,16,50,14.20
2016,04,01,16,51,14.20
2016,04,01,16,52,14.20
2016,04,01,16,53,14.20
2016,04,01,16,54,14.20
2016,04,01,16,55,14.10
2016,04,01,16,56,14.20
2016,04,01,16,57,14.10
2016,04,01,16,58,14.10
2016,04,01,16,59,14.10
2016,04,01,17,00,14.00
2016,04,01,17,01,14.00
2016,04,01,17,02,14.00
2016,04,01,17,03,14.00
2016,04,01,17,04,14.00
2016,04,01,17,05,14.00
2016,04,01,17,06,14.10
2016,04,01,17,07,14.10
2016,04,01,17,08,14.10
2016,04,01,17,09,14.20
2016,04,01,17,10,14.20
2016,04,01,17,11,14.20
2016,04,01,17,12,14.10
2016,04,01,17,13,14.10
2016,04,01,17,14,14.10
2016,04,01,17,15,14.10
2016,04,01,17,16,14.10
2016,04,01,17,17,14.10
2016,04,01,17,18,14.20
2016,04,01,17,19,14.20
2016,04,01,17,20,14.20
2016,04,01,17,21,14.20
2016,04,01,17,22,14.20
2016,04,01,17,23,14.20
2016,04,01,17,24,14.20
2016,04,01,17,25,14.20
2016,04,01,17,26,14.20
2016,04,01,17,27,14.10
2016,04,01,17,28,14.10
2016,04,01,17,29,14.10
2016,04,01,17,30,14.00
2016,04,01,17,31,14.00
2016,04,01,17,32,14.00
2016,04,01,17,33,13.90
2016,04,01,17,34,13.90
2016,04,01,17,35,13.90
2016,04,01,17,36,13.90
2016,04,01,17,37,13.80
2016,04,01,17,38,13.80
2016,04,01,17,39,13.80
2016,04,01,17,41,13.80
2016,04,01,17,42,13.80
2016,04,01,17,44,13.70
2016,04,01,17,46,13.70
2016,04,01,17,47,13.70
2016,04,01,17,48,13.70
2016,04,01,17,49,13.70
2016,04,01,17,51,13.60
2016,04,01,17,52,13.60
2016,04,01,17,53,13.60
2016,04,01,17,54,13.50
2016,04,01,17,56,13.50
2016,04,01,17,57,13.50
2016,04,01,17,58,13.50
2016,04,01,17,59,13.50
2016,04,01,18,01,13.50
2016,04,01,18,02,13.40
2016,04,01,18,03,13.40
2016,04,01,18,04,13.40
2016,04,01,18,06,13.40
2016,04,01,18,07,13.40
2016,04,01,18,08,13.30
2016,04,01,18,09,13.30
2016,04,01,18,11,13.30
2016,04,01,18,12,13.30
2016,04,01,18,13,13.30
2016,04,01,18,14,13.30
2016,04,01,18,16,13.30
2016,04,01,18,17,13.30
2016,04,01,18,18,13.30
2016,04,01,18,19,13.30
2016,04,01,18,21,13.30
2016,04,01,18,22,13.30
2016,04,01,18,23,13.30
2016,04,01,18,24,13.30
2016,04,01,18,26,13.20
2016,04,01,18,27,13.20
2016,04,01,18,28,13.20
2016,04,01,18,29,13.20
2016,04,01,18,31,13.10
2016,04,01,18,32,13.10
2016,04,01,18,33,13.10
2016,04,01,18,34,13.10
2016,04,01,18,36,13.00
2016,04,01,18,37,13.00
2016,04,01,18,38,13.00
2016,04,01,18,39,13.10
2016,04,01,18,41,13.10
2016,04,01,18,42,13.10
2016,04,01,18,43,13.10
2016,04,01,18,44,13.10
2016,04,01,18,46,13.10
2016,04,01,18,47,13.20
2016,04,01,18,48,13.20
2016,04,01,18,49,13.20
2016,04,01,18,51,13.20
2016,04,01,18,52,13.20
2016,04,01,18,53,13.10
2016,04,01,18,54,13.10
2016,04,01,18,55,13.10
2016,04,01,18,56,13.10
2016,04,01,18,57,13.10
2016,04,01,18,58,13.10
2016,04,01,18,59,13.10
2016,04,01,19,00,13.10
2016,04,01,19,01,13.10
2016,04,01,19,02,13.10
2016,04,01,19,03,13.10
2016,04,01,19,04,13.10
2016,04,01,19,06,13.10
2016,04,01,19,07,13.10
2016,04,01,19,08,13.10
2016,04,01,19,09,13.10
2016,04,01,19,10,13.10
2016,04,01,19,11,13.10
2016,04,01,19,12,13.10
2016,04,01,19,13,13.10
2016,04,01,19,14,13.10
2016,04,01,19,15,13.10
2016,04,01,19,16,13.10
2016,04,01,19,17,13.00
2016,04,01,19,18,13.00
2016,04,01,19,19,13.00
2016,04,01,19,20,13.00
2016,04,01,19,21,13.00
2016,04,01,19,22,13.00
2016,04,01,19,23,12.90
2016,04,01,19,24,12.90
2016,04,01,19,25,12.90
2016,04,01,19,26,12.80
2016,04,01,19,27,12.80
2016,04,01,19,28,12.80
2016,04,01,19,29,12.80
2016,04,01,19,30,12.80
2016,04,01,19,31,12.80
2016,04,01,19,32,12.80
2016,04,01,19,33,12.70
2016,04,01,19,34,12.70
2016,04,01,19,35,12.70
2016,04,01,19,36,12.70
2016,04,01,19,37,12.70
2016,04,01,19,38,12.60
2016,04,01,19,39,12.60
2016,04,01,19,40,12.60
2016,04,01,19,41,12.60
2016,04,01,19,42,12.50
2016,04,01,19,43,12.50
2016,04,01,19,44,12.50
2016,04,01,19,45,12.50
2016,04,01,19,46,12.50
2016,04,01,19,47,12.50
2016,04,01,19,48,12.50
2016,04,01,19,49,12.50
2016,04,01,19,50,12.40
2016,04,01,19,51,12.40
2016,04,01,19,52,12.40
2016,04,01,19,53,12.40
2016,04,01,19,54,12.40
2016,04,01,19,55,12.40
2016,04,01,19,56,12.30
2016,04,01,19,57,12.30
2016,04,01,19,58,12.30
2016,04,01,19,59,12.30
2016,04,01,20,00,12.30
2016,04,01,20,01,12.30
2016,04,01,20,02,12.30
2016,04,01,20,03,12.30
2016,04,01,20,04,12.30
2016,04,01,20,05,12.30
2016,04,01,20,06,12.30
2016,04,01,20,07,12.30
2016,04,01,20,08,12.30
2016,04,01,20,09,12.20
2016,04,01,20,10,12.20
2016,04,01,20,11,12.20
2016,04,01,20,12,12.20
2016,04,01,20,13,12.20
2016,04,01,20,14,12.20
2016,04,01,20,15,12.20
2016,04,01,20,16,12.10
2016,04,01,20,17,12.10
2016,04,01,20,18,12.10
2016,04,01,20,19,12.00
2016,04,01,20,20,12.00
2016,04,01,20,21,12.00
2016,04,01,20,22,11.90
2016,04,01,20,23,11.90
2016,04,01,20,24,11.90
2016,04,01,20,25,11.90
2016,04,01,20,26,11.80
2016,04,01,20,27,11.80
2016,04,01,20,28,11.80
2016,04,01,20,29,11.80
2016,04,01,20,30,11.80
2016,04,01,20,31,11.80
2016,04,01,20,32,11.80
2016,04,01,20,33,11.80
2016,04,01,20,34,11.80
2016,04,01,20,36,11.80
2016,04,01,20,37,11.80
2016,04,01,20,38,11.80
2016,04,01,20,39,11.80
2016,04,01,20,41,11.70
2016,04,01,20,42,11.70
2016,04,01,20,43,11.70
2016,04,01,20,44,11.70
2016,04,01,20,46,11.70
2016,04,01,20,47,11.70
2016,04,01,20,48,11.60
2016,04,01,20,49,11.60
2016,04,01,20,51,11.60
2016,04,01,20,52,11.60
2016,04,01,20,53,11.60
2016,04,01,20,54,11.60
2016,04,01,20,56,11.60
2016,04,01,20,57,11.60
2016,04,01,20,58,11.60
2016,04,01,20,59,11.60
2016,04,01,21,01,11.60
2016,04,01,21,02,11.60
2016,04,01,21,03,11.60
2016,04,01,21,04,11.60
2016,04,01,21,06,11.60
2016,04,01,21,07,11.60
2016,04,01,21,08,11.60
2016,04,01,21,09,11.60
2016,04,01,21,11,11.60
2016,04,01,21,12,11.60
2016,04,01,21,13,11.60
2016,04,01,21,14,11.60
2016,04,01,21,16,11.60
2016,04,01,21,17,11.70
2016,04,01,21,18,11.60
2016,04,01,21,19,11.60
2016,04,01,21,21,11.60
2016,04,01,21,22,11.60
2016,04,01,21,23,11.60
2016,04,01,21,24,11.60
2016,04,01,21,26,11.60
2016,04,01,21,27,11.60
2016,04,01,21,28,11.60
2016,04,01,21,29,11.60
2016,04,01,21,31,11.60
2016,04,01,21,32,11.60
2016,04,01,21,33,11.60
2016,04,01,21,34,11.60
2016,04,01,21,36,11.60
2016,04,01,21,37,11.60
2016,04,01,21,38,11.60
2016,04,01,21,39,11.60
2016,04,01,21,40,11.60
2016,04,01,21,41,11.60
2016,04,01,21,42,11.60
2016,04,01,21,43,11.60
2016,04,01,21,44,11.60
2016,04,01,21,45,11.60
2016,04,01,21,46,11.60
2016,04,01,21,47,11.40
2016,04,01,21,48,11.40
2016,04,01,21,49,11.40
2016,04,01,21,50,11.40
2016,04,01,21,51,11.40
2016,04,01,21,52,11.40
2016,04,01,21,53,11.40
2016,04,01,21,54,11.40
2016,04,01,21,55,11.40
2016,04,01,21,56,11.40
2016,04,01,21,57,11.40
2016,04,01,21,58,11.40
2016,04,01,21,59,11.40
2016,04,01,22,00,11.40
2016,04,01,22,01,11.40
2016,04,01,22,02,11.40
2016,04,01,22,03,11.40
2016,04,01,22,04,11.40
2016,04,01,22,05,11.30
2016,04,01,22,06,11.30
2016,04,01,22,07,11.30
2016,04,01,22,08,11.30
2016,04,01,22,09,11.30
2016,04,01,22,10,11.30
2016,04,01,22,11,11.30
2016,04,01,22,12,11.30
2016,04,01,22,13,11.30
2016,04,01,22,14,11.20
2016,04,01,22,15,11.20
2016,04,01,22,16,11.20
2016,04,01,22,17,11.20
2016,04,01,22,18,11.20